RH
17 18 18 19 22 27 32 37 38 38 37 36 36 37 37 36 34 32 30 28 25 22 20 18 16 13 12 13 16 20 20 19 15 9 5 2 3 2 2 3 3 3 5 8 8 8 9 9 8 8 8 8 9 9 9 9 10 10 9 10 10 9 9 9 9 9 9 10 10 9 10 10 10 11 12 13 14 15 16 17 18 19 20 20 21 21
16 17 17 18 23 29 34 38 38 37 35 33 32 32 29 24 19 16 15 14 13 12 11 12 10 9 13 16 17 17 15 12 6 3 3 3 4 4 4 4 4 5 7 8 8 8 8 9 8 9 9 9 9 9 9 9 9 10 10 10 10 10 10 10 10 10 10 10 10 10 11 11 12 13 13 14 15 16 17 18 19 20 21 21 21 22
14 15 16 17 19 25 32 34 33 30 26 22 20 16 12 9 7 9 12 11 10 9 7 8 7 6 11 14 11 10 11 10 6 3 4 3 4 5 5 5 5 6 8 8 7 8 8 8 9 8 8 8 9 9 9 9 9 10 10 10 10 11 11 11 11 10 10 10 10 10 11 11 12 13 14 15 17 18 19 20 21 22 23 24 23 24
12 11 11 11 10 13 16 18 17 13 9 6 4 3 3 3 3 7 10 9 7 7 7 7 6 4 6 8 5 5 7 9 10 7 6 6 5 6 6 5 7 7 7 7 7 7 8 8 8 8 8 8 7 8 8 9 9 9 10 10 10 10 10 10 10 9 9 10 10 10 11 12 12 13 16 16 17 20 22 22 25 27 28 29 29 31
9 5 3 3 3 3 3 4 3 2 2 2 2 2 3 3 4 5 7 7 6 6 8 9 7 4 4 6 4 4 5 6 10 10 8 11 10 8 7 6 7 7 7 7 7 8 8 9 9 9 8 8 7 7 8 8 9 9 10 9 8 8 8 8 9 9 9 10 10 11 12 13 13 15 17 17 20 27 29 29 33 36 37 37 38 40
5 2 1 1 1 1 1 1 1 2 2 1 2 3 2 2 3 4 5 6 7 9 9 12 18 13 4 5 5 4 5 5 8 10 10 12 13 10 8 8 8 7 6 7 7 8 9 9 10 10 9 8 7 8 8 8 9 10 9 8 8 8 9 10 10 11 11 11 12 13 13 14 15 15 16 19 23 28 31 34 38 43 47 49 49 50
2 1 1 1 1 1 1 1 1 2 1 2 3 3 2 2 3 5 7 8 11 14 13 17 30 28 9 2 6 5 4 5 6 8 8 9 10 9 8 9 8 7 7 7 6 7 7 8 8 8 8 7 8 9 9 10 10 10 9 9 10 11 12 12 12 13 13 14 14 14 15 15 16 16 16 22 26 26 29 33 37 43 48 54 57 59
1 1 1 1 1 1 1 2 2 2 2 3 3 3 3 3 4 7 9 13 17 17 18 21 31 38 22 4 4 5 4 6 7 8 8 7 7 8 8 9 8 7 7 6 6 7 7 7 7 8 8 8 9 10 10 10 10 10 10 11 11 12 13 13 14 15 15 16 16 16 18 18 20 23 24 29 33 33 34 35 37 40 43 48 54 57
1 1 1 1 1 2 2 2 2 3 3 3 3 4 3 3 6 9 12 16 18 18 22 22 25 36 26 4 2 5 3 5 6 6 7 6 7 9 9 9 9 8 7 6 7 8 9 9 9 9 9 8 8 9 10 10 10 11 11 11 11 12 15 16 17 18 17 18 19 21 24 26 30 34 35 36 36 37 39 39 39 43 45 48 53 55
1 1 1 2 2 3 2 3 4 3 4 4 4 3 2 5 7 9 14 14 17 24 25 20 23 33 25 5 1 6 3 5 6 5 7 7 9 10 9 9 9 8 7 7 8 9 10 10 10 10 9 8 8 8 9 10 11 11 11 11 13 16 18 19 19 19 21 24 27 31 33 34 35 35 34 32 31 35 40 42 46 55 58 58 62 67
2 1 2 2 2 3 2 3 4 3 5 4 3 4 3 8 8 10 16 13 21 34 25 15 21 32 29 10 2 5 5 5 6 5 7 8 10 11 10 10 9 8 7 7 8 9 10 9 9 9 8 9 9 9 9 10 10 11 12 15 17 21 22 21 21 24 29 33 34 34 32 29 26 24 23 21 20 25 30 33 39 55 67 71 74 79
2 1 3 2 3 3 2 4 3 3 6 3 4 5 2 7 7 8 14 10 20 32 19 14 23 30 30 14 2 6 6 6 6 6 7 8 11 14 13 11 9 8 7 7 9 9 9 10 10 10 10 12 11 9 10 10 10 13 16 18 22 25 23 21 25 31 34 33 28 25 21 18 15 13 12 10 10 11 13 15 18 27 43 53 61 69
3 4 4 2 3 4 2 4 3 4 6 3 5 4 3 13 12 17 28 17 14 21 12 13 21 23 23 10 3 7 5 6 7 7 9 9 11 15 15 13 10 9 7 8 9 9 10 12 12 13 14 14 12 12 12 11 14 18 20 23 28 28 23 24 30 32 28 23 18 15 12 10 8 6 5 4 4 4 3 5 5 6 12 17 24 33
6 9 8 3 4 5 3 4 3 4 5 3 6 4 6 18 19 32 48 27 12 15 9 13 22 19 14 7 6 8 5 7 8 6 9 8 10 14 15 14 11 10 9 8 10 11 13 15 16 17 16 16 16 15 14 16 19 21 24 30 31 25 24 29 30 25 19 16 13 11 8 5 4 3 3 3 2 3 3 3 3 3 4 4 6 7
8 9 8 5 5 5 4 4 3 4 4 4 9 7 5 11 9 23 38 21 11 18 12 15 22 17 11 7 7 7 5 7 6 5 6 6 8 12 13 14 13 13 12 12 13 14 15 18 19 19 19 20 20 18 19 21 22 26 32 33 27 24 29 30 24 18 15 12 9 6 4 3 3 2 3 3 3 3 4 3 3 4 3 3 4 3
8 7 7 7 5 4 4 4 4 5 7 8 9 8 8 10 7 14 22 15 19 33 31 25 17 9 7 7 6 6 6 5 5 5 5 5 7 9 11 13 13 14 15 15 16 15 17 19 19 22 23 23 22 22 23 23 27 34 34 28 25 29 29 22 16 14 11 8 5 4 3 3 3 3 3 4 4 4 4 4 4 4 4 3 3 3
8 7 8 7 4 5 5 5 7 7 8 9 9 10 11 11 11 14 20 27 38 46 39 26 16 8 6 7 8 7 6 5 6 7 6 7 7 8 10 10 11 14 15 15 15 16 17 17 19 23 23 24 25 24 24 29 37 36 28 26 30 29 22 16 13 11 7 5 4 3 3 3 3 4 4 4 4 4 4 4 4 3 3 3 3 3
8 7 6 5 5 7 7 7 9 9 9 12 13 13 12 14 20 21 27 41 54 57 45 27 18 13 10 11 9 7 8 7 8 8 7 9 9 10 11 12 12 13 13 14 16 17 18 19 21 23 24 27 26 26 32 40 38 29 27 31 30 21 15 13 10 6 4 4 3 3 3 4 4 4 4 4 4 4 4 4 4 4 4 3 3 3
7 6 6 8 8 9 9 9 10 10 11 13 14 14 13 16 22 23 26 31 38 53 56 38 23 15 11 12 8 6 8 8 8 10 9 10 10 11 12 13 15 14 15 18 18 18 20 21 24 27 28 28 29 36 43 39 29 28 33 30 21 15 13 9 6 4 4 3 3 4 4 4 4 4 4 4 4 4 4 4 4 3 4 4 3 4
6 7 7 9 10 10 10 10 10 9 9 12 13 16 16 17 20 19 23 23 25 44 56 49 38 23 9 7 7 7 9 9 10 11 10 11 11 12 14 16 18 19 21 21 20 20 22 25 29 30 29 33 42 48 39 29 30 34 31 21 14 12 9 5 4 3 3 3 4 4 4 5 5 4 5 4 4 5 4 4 4 4 4 4 3 4
5 7 8 8 8 9 9 8 8 7 8 9 11 13 14 17 21 20 22 21 22 40 59 63 52 24 5 6 8 8 10 10 12 11 11 13 14 16 19 20 22 23 22 21 21 24 27 30 31 31 38 50 51 40 27 30 37 32 21 15 12 9 5 4 4 2 3 4 4 5 5 5 5 5 5 5 5 5 4 4 4 4 4 4 4 5
3 5 6 6 5 6 7 7 7 7 7 7 9 10 11 14 20 24 30 27 20 29 44 52 44 18 5 10 9 8 12 12 12 13 14 16 17 20 22 23 24 22 20 22 25 29 31 32 35 45 57 55 39 28 31 37 33 21 15 13 9 6 4 3 3 3 4 4 5 6 5 5 5 5 5 5 5 5 5 5 5 5 5 5 5 6
3 5 6 6 6 7 7 7 6 5 4 5 7 7 8 13 16 21 28 26 23 27 29 41 48 25 7 10 10 10 14 13 14 15 15 18 20 22 24 23 22 21 23 28 30 32 34 38 51 63 59 40 28 33 39 33 22 15 12 9 6 5 3 3 4 4 5 5 6 6 5 6 6 5 6 5 5 5 5 5 5 5 6 5 6 8
7 10 10 9 7 5 5 4 5 5 5 6 8 8 10 13 13 17 21 20 26 31 29 45 54 27 5 10 13 13 15 14 15 16 17 21 22 23 24 22 23 25 29 32 34 36 42 53 66 63 42 29 33 40 35 24 16 13 9 6 5 4 3 4 4 4 5 6 6 6 6 6 6 6 6 6 6 6 6 6 6 6 6 6 7 7
10 11 13 14 12 9 9 9 7 8 9 10 10 10 10 11 12 16 21 25 32 31 27 40 42 19 8 13 12 13 16 15 15 17 20 23 23 24 24 24 26 30 32 34 39 46 57 69 66 47 30 33 41 38 26 17 13 10 7 5 4 3 4 4 4 5 6 6 6 7 6 6 6 7 6 6 6 6 6 7 7 7 7 7 7 8
7 8 8 12 14 14 15 13 9 7 8 9 8 9 9 11 15 16 20 30 36 31 29 33 27 14 11 13 11 14 16 15 17 21 22 23 24 24 25 28 31 33 35 40 48 60 71 70 51 33 32 41 40 29 19 13 11 8 6 4 3 4 4 4 5 6 6 6 7 7 7 7 7 7 7 7 7 7 7 8 7 8 8 8 8 9
7 7 7 8 9 10 11 10 9 9 10 11 11 13 14 15 18 20 25 29 28 28 30 23 16 15 14 12 14 15 15 18 20 21 22 24 25 27 29 32 34 36 41 49 60 72 73 57 37 32 41 42 32 21 14 11 9 6 4 4 4 4 4 5 6 6 7 7 7 7 8 7 7 8 8 8 8 8 8 8 8 9 9 9 9 10
10 9 9 10 9 9 10 10 12 14 15 14 14 16 17 19 23 27 28 23 19 28 31 17 13 20 17 12 15 16 17 20 21 22 25 27 29 32 33 36 38 41 49 59 71 75 63 42 34 40 44 36 24 16 12 9 7 5 4 4 3 4 5 6 6 7 7 8 8 8 8 8 8 9 8 9 9 9 9 9 10 10 10 10 10 11
13 12 11 12 12 11 12 13 15 17 16 15 16 16 16 20 24 25 22 17 20 27 25 15 16 21 16 14 17 17 19 22 22 24 28 31 34 36 37 40 44 50 59 69 76 70 49 36 40 45 39 27 18 13 10 7 5 4 4 4 4 5 5 6 7 7 8 8 8 8 8 9 9 9 9 10 10 10 10 10 11 11 11 12 12 13
17 16 14 16 14 11 13 14 15 16 16 14 14 15 17 19 22 22 19 19 25 27 20 18 23 21 16 16 18 19 22 23 23 26 30 34 38 40 43 47 52 59 68 76 75 59 42 40 46 44 31 20 14 11 7 5 4 4 4 4 5 5 6 7 7 8 8 9 9 9 9 10 10 10 11 11 11 11 12 12 12 12 12 13 13 14
18 19 17 18 18 13 12 15 17 18 18 17 15 15 17 19 20 20 19 19 25 25 18 20 25 21 16 17 20 23 24 23 25 28 32 37 41 44 49 53 59 67 74 77 69 51 42 47 47 37 24 16 12 9 6 5 4 4 4 4 5 6 7 7 8 8 9 9 9 10 10 10 11 11 11 12 12 13 12 13 13 13 14 14 14 15
18 19 17 22 26 18 12 18 21 21 23 21 16 14 14 16 16 16 17 17 19 20 18 22 26 20 17 20 23 25 25 25 27 30 34 39 43 46 51 57 64 72 78 76 62 48 47 50 43 30 19 14 10 7 5 4 4 4 4 5 6 6 7 8 8 9 9 10 10 10 11 11 12 12 13 13 14 14 14 15 15 15 16 15 16 16
16 19 19 28 34 23 17 23 24 27 33 26 15 14 16 16 18 19 19 18 18 20 22 23 22 18 19 24 26 26 28 28 29 32 36 40 43 47 52 58 67 75 79 73 58 49 51 49 37 24 16 12 8 6 4 4 4 4 5 5 6 7 8 8 9 9 10 10 11 11 11 12 12 13 14 14 15 15 16 16 16 17 17 17 18 18
15 17 21 32 39 29 20 25 31 41 44 28 14 16 20 19 21 21 19 19 19 21 21 20 20 20 23 26 29 30 31 31 32 34 37 39 43 48 52 59 69 78 80 71 57 52 52 44 30 19 13 10 7 5 5 4 4 5 5 6 7 7 8 9 9 10 11 11 11 12 12 13 14 15 15 16 17 17 18 18 19 19 19 19 20 20
14 18 22 32 41 34 26 34 43 43 34 19 16 20 19 18 20 20 19 20 20 21 21 21 22 24 26 29 31 32 31 32 35 36 37 39 44 48 52 59 70 80 80 69 57 54 50 37 24 16 12 8 5 4 5 4 4 5 5 6 7 8 8 9 10 11 11 11 12 13 13 14 15 16 17 18 19 19 20 21 21 21 22 22 22 23
15 18 23 32 40 39 41 48 44 31 19 16 19 19 17 18 20 21 22 23 23 24 25 25 26 27 29 31 31 31 32 35 37 37 36 40 45 48 52 59 71 82 80 67 58 55 46 30 18 13 10 6 5 4 5 4 5 6 6 7 8 8 9 10 10 11 12 12 13 14 15 15 16 17 18 19 21 22 23 24 24 25 26 25 26 26
17 19 25 36 42 42 47 48 39 30 25 20 19 18 19 22 23 25 27 25 23 26 27 27 28 29 30 33 34 36 39 40 39 36 38 44 47 48 50 59 75 85 78 65 59 53 38 23 15 12 8 5 5 5 4 5 5 6 7 8 8 9 10 10 11 12 12 13 14 15 16 17 18 19 20 22 23 25 26 27 28 29 29 30 30 30
19 20 25 39 47 47 55 66 64 53 36 21 19 20 21 25 27 31 34 28 21 25 29 29 31 33 35 39 41 42 44 43 40 38 42 47 47 45 50 63 80 86 76 66 60 48 31 19 13 10 6 5 5 5 5 5 6 7 8 8 9 10 11 11 12 13 13 14 16 16 18 19 20 22 23 25 27 28 29 30 32 32 33 34 35 35
22 23 27 42 50 50 60 76 76 58 32 19 20 22 24 29 29 34 42 34 22 27 34 35 37 40 41 43 44 45 48 49 43 40 44 46 44 44 52 68 83 86 76 66 58 42 25 17 12 8 6 5 4 5 5 5 6 7 8 9 10 10 11 12 13 13 14 16 17 18 20 21 23 25 27 28 30 32 33 34 36 37 38 39 40 40
23 27 34 44 45 45 61 73 63 40 24 20 23 25 28 30 29 41 54 42 28 34 41 39 41 44 43 45 48 48 51 52 46 42 43 43 42 45 57 74 87 85 75 66 55 37 22 14 10 6 5 5 5 5 5 6 7 8 9 9 10 11 12 13 14 15 16 18 19 21 23 24 27 29 31 32 34 36 38 39 40 42 43 44 45 46
23 29 38 43 42 48 70 82 64 34 20 22 26 27 29 30 36 49 52 40 35 41 43 41 44 46 46 49 50 49 50 50 45 42 42 43 44 51 65 82 90 84 75 66 51 32 18 12 8 6 5 5 5 5 6 7 8 8 10 10 11 12 13 14 15 17 18 20 22 24 26 28 31 32 34 36 37 39 41 43 44 45 47 48 49 50
23 30 35 39 42 48 66 85 77 46 24 23 28 30 32 37 43 45 41 38 42 45 43 45 48 48 49 50 49 48 47 46 44 45 45 46 50 61 78 90 91 84 75 64 46 27 16 10 6 5 5 5 5 6 6 8 8 9 11 11 12 13 14 15 17 19 20 23 25 27 29 31 33 35 36 38 39 40 43 45 45 47 49 50 51 53
23 29 31 31 34 41 60 88 91 60 30 25 31 33 36 39 41 41 41 44 47 46 47 49 48 48 50 48 46 47 46 45 47 48 49 51 59 74 88 94 91 84 74 59 40 24 14 9 6 5 5 5 6 6 7 8 9 10 12 12 13 15 16 17 19 21 23 26 27 29 31 33 35 37 37 38 39 41 43 45 47 49 50 51 52 53
23 27 29 27 30 36 47 61 59 40 28 32 36 38 41 43 45 46 49 50 50 50 50 48 45 46 48 46 45 47 46 48 51 52 54 60 71 84 94 96 91 83 71 53 34 20 12 8 6 5 5 5 6 7 8 9 10 12 13 14 15 16 17 19 21 23 26 28 29 31 33 34 36 37 38 39 41 42 45 48 49 52 54 55 55 56
23 26 28 29 31 33 35 35 34 33 37 41 43 44 47 49 51 54 55 53 50 47 46 45 43 45 47 47 47 48 49 53 56 58 61 70 81 92 98 96 90 81 66 46 29 18 11 7 5 6 5 6 6 8 9 10 11 13 14 15 16 18 19 21 23 26 28 29 31 32 33 35 37 39 41 42 43 45 47 50 52 55 57 59 60 60
25 30 33 33 34 36 36 36 39 43 45 47 51 51 50 49 50 54 54 49 45 44 45 46 45 46 48 49 49 51 54 57 60 64 70 80 91 98 99 96 89 77 59 40 25 16 9 6 6 6 6 6 7 8 9 11 12 14 15 16 18 19 21 24 26 28 30 31 32 33 35 37 39 42 44 46 46 47 48 49 51 53 57 59 61 61
31 36 37 38 40 44 44 43 45 49 51 54 54 49 46 48 48 48 48 45 42 44 45 45 46 48 50 51 53 55 58 61 65 71 80 89 97 100 99 96 87 71 52 35 22 14 8 6 6 6 6 7 7 8 10 11 13 15 16 18 20 21 24 26 27 29 31 32 33 35 37 38 41 43 45 47 47 47 47 48 48 49 53 56 55 55
36 40 42 45 49 52 52 50 50 51 51 52 50 45 44 47 45 43 45 44 42 43 44 46 49 52 54 56 58 60 64 68 72 80 89 97 100 100 100 96 83 64 46 31 19 12 8 6 6 6 7 7 8 9 11 12 13 15 16 19 21 23 25 27 28 30 32 33 35 37 38 39 39 40 41 43 44 44 44 45 45 45 49 53 51 47
42 48 51 57 58 57 56 56 56 52 45 42 43 44 44 44 43 42 43 44 44 47 50 53 56 59 62 64 66 68 71 75 81 89 97 100 100 100 100 93 77 57 41 27 17 10 8 7 6 6 7 8 8 10 11 12 13 14 16 19 22 24 26 28 29 31 33 35 36 37 37 37 36 35 35 36 38 39 39 41 42 41 44 50 52 51
54 60 65 72 74 68 62 59 63 63 52 41 39 44 45 45 45 45 46 48 51 54 58 62 65 68 71 72 74 76 79 84 91 97 100 100 100 101 100 90 71 52 37 25 16 10 8 7 6 7 7 8 9 11 12 13 14 14 16 20 23 24 26 28 30 33 35 36 36 35 33 33 33 32 32 32 33 35 37 41 45 46 47 48 51 53
72 76 78 80 79 71 60 55 59 62 57 46 42 45 47 47 48 49 52 56 60 63 67 71 73 76 78 80 82 85 88 93 98 100 100 100 100 101 98 85 66 48 35 23 15 11 9 8 7 7 8 9 10 11 13 14 14 14 16 20 23 25 27 29 31 33 35 35 34 33 31 30 30 31 32 33 34 37 40 43 48 53 57 57 56 55
Wind_Speed
4 5 5 6 7 8 8 9 9 8 7 7 7 8 9 11 11 12 13 14 15 15 15 15 16 16 16 16 16 16 16 15 15 15 13 11 10 10 11 11 11 11 11 11 10 11 12 13 13 14 15 16 17 18 19 20 20 21 22 23 25 26 27 28 28 29 29 30 31 32 33 34 35 36 37 37 38 38 38 39 39 40 41 42 42 43
4 6 6 5 6 7 8 8 8 8 8 8 8 8 9 10 11 11 11 11 12 13 12 13 15 15 15 17 17 17 17 15 15 15 14 13 11 10 10 11 11 11 11 11 11 12 13 14 15 16 17 18 19 20 21 22 22 23 24 25 26 28 29 29 29 30 31 32 33 34 35 36 37 37 38 38 38 38 38 39 40 41 42 43 43 44
4 5 6 5 5 6 8 9 8 8 8 7 7 7 8 8 8 8 8 9 11 12 13 15 16 14 14 17 19 19 17 16 17 16 14 14 13 10 10 11 11 11 11 12 12 13 14 15 16 17 18 19 20 21 23 24 24 24 25 26 27 29 30 30 31 32 33 35 36 37 38 38 39 39 39 39 38 38 38 39 40 41 41 43 44 44
4 3 4 4 4 4 5 6 6 5 4 4 5 6 7 7 7 7 8 10 11 13 14 15 18 17 14 17 20 19 18 17 19 18 16 16 14 12 12 12 11 11 12 12 13 14 15 16 17 19 20 21 22 22 23 24 24 24 25 27 29 30 32 32 34 35 37 38 39 40 40 41 41 41 40 40 39 38 39 40 41 41 42 43 43 44
2 3 3 3 2 1 1 1 2 3 4 5 7 8 9 10 9 9 10 11 12 13 13 16 18 15 10 11 14 15 16 17 18 20 18 16 14 14 14 13 12 12 12 12 13 14 15 17 18 20 21 23 24 24 25 25 26 27 28 30 32 32 33 34 36 38 40 41 42 43 43 43 43 43 42 42 40 40 41 42 42 43 44 45 45 46
3 5 4 3 2 2 2 3 4 5 6 7 8 9 10 10 10 10 10 11 12 11 12 15 12 8 9 11 12 14 16 16 17 19 18 16 15 16 15 13 13 13 13 13 13 14 16 18 19 21 23 25 26 26 27 28 28 30 31 33 34 34 35 36 38 40 43 44 44 45 46 45 45 45 44 43 42 42 44 44 45 45 46 47 48 49
4 4 3 2 1 2 3 4 5 6 7 7 8 9 9 9 9 9 9 10 10 10 13 15 7 8 18 19 12 13 14 14 15 16 15 15 17 17 15 14 15 15 15 15 15 16 18 20 21 22 23 25 26 27 28 29 30 32 33 34 35 36 37 39 41 43 44 45 45 45 46 46 46 46 45 44 44 47 48 48 49 49 49 49 50 51
2 2 2 1 2 3 4 5 5 6 6 6 6 7 7 8 8 8 9 9 10 13 14 13 9 11 20 20 13 12 14 15 17 16 15 16 15 15 14 16 18 18 17 17 17 19 20 21 21 21 23 24 26 27 28 29 31 33 34 35 37 38 40 41 43 44 45 45 44 44 45 45 45 46 46 46 47 49 50 51 52 52 53 53 53 54
1 0 1 2 3 3 4 4 4 5 4 5 6 6 7 8 8 8 9 9 11 13 11 11 10 8 15 21 19 17 15 11 12 12 11 12 13 14 16 18 21 20 19 19 19 22 22 22 23 22 24 26 27 28 28 30 31 33 34 37 39 41 42 43 44 44 44 43 43 43 44 45 45 46 47 48 49 50 52 53 54 55 55 56 57 57
1 1 2 2 2 3 4 3 4 4 4 5 6 7 9 9 8 7 7 9 9 9 8 9 9 4 12 25 21 12 10 8 9 10 10 13 15 17 18 20 22 22 20 21 22 24 25 25 26 26 28 29 29 29 29 30 32 34 37 39 41 43 43 43 43 42 41 41 42 43 44 45 46 47 48 50 51 51 53 54 55 55 57 58 58 59
1 2 1 2 2 3 3 3 4 4 5 7 7 9 11 9 8 7 7 7 4 5 6 6 8 3 8 20 15 8 13 14 14 14 14 17 18 18 19 21 23 23 23 24 26 27 28 30 30 31 33 32 31 31 32 33 34 37 40 42 43 43 43 42 41 40 40 41 42 43 44 46 47 48 50 52 53 53 54 55 56 56 57 58 59 59
1 2 2 2 3 3 4 4 4 5 6 7 9 10 10 8 6 5 4 3 0 4 6 6 8 5 9 17 17 14 18 15 13 15 16 18 19 19 20 22 24 26 27 28 29 30 32 33 33 34 35 34 33 33 34 35 37 40 43 43 44 44 43 41 40 41 41 41 43 44 45 47 48 50 51 52 53 54 54 55 56 56 57 58 59 59
2 3 3 3 4 4 4 5 5 6 7 8 10 9 7 5 4 3 2 1 3 6 7 9 10 10 21 28 21 14 15 13 14 16 15 16 17 19 23 25 26 28 30 31 32 33 34 35 36 36 36 35 35 36 37 38 40 43 44 45 46 46 44 42 42 43 43 44 45 47 49 50 51 51 51 51 51 51 51 52 53 54 55 57 58 58
3 4 4 5 5 5 5 6 7 7 8 10 10 7 4 2 3 3 3 2 5 7 8 11 10 13 25 26 17 14 20 20 18 15 14 15 15 19 24 26 28 30 32 34 33 33 34 36 37 37 37 37 37 38 39 41 43 45 46 47 47 46 44 44 44 45 46 48 49 51 51 51 51 50 49 49 48 48 49 50 51 52 53 54 56 57
3 5 5 5 5 6 7 7 8 9 11 12 9 6 6 3 1 4 4 3 5 6 9 11 9 12 19 21 23 28 25 17 14 13 14 14 13 17 23 26 29 32 33 33 33 32 35 37 37 37 37 38 39 40 41 43 45 47 48 48 46 45 45 45 45 46 48 50 52 52 51 50 49 48 47 47 47 48 48 49 50 50 51 53 54 56
4 5 5 6 8 8 10 10 10 11 10 8 8 8 9 8 6 7 6 8 6 4 7 10 12 21 28 30 32 25 15 11 11 13 14 14 14 18 23 27 30 32 33 32 32 34 39 41 39 38 38 39 40 41 43 45 47 48 48 46 45 45 45 46 47 49 51 52 52 51 49 48 47 46 47 47 47 47 47 48 49 50 51 52 54 55
4 6 7 10 11 10 12 13 13 12 10 10 12 13 12 11 10 8 7 8 4 2 6 10 16 29 33 29 24 13 10 13 13 14 16 17 20 22 23 26 29 32 33 32 33 38 43 43 40 39 39 40 42 43 45 47 48 48 46 45 45 45 46 47 49 51 52 52 50 48 46 45 46 46 46 46 46 46 46 47 48 49 50 52 53 54
9 11 13 13 12 12 12 13 15 15 14 15 16 15 12 10 9 7 4 3 0 2 6 10 17 28 26 20 21 18 16 17 15 16 18 19 22 23 23 25 28 31 32 33 38 42 43 41 38 38 39 40 42 44 46 48 47 46 45 45 46 46 47 49 51 52 51 50 47 45 44 44 44 45 45 45 45 45 45 46 47 48 49 49 50 51
12 13 12 11 11 12 13 14 16 16 16 17 17 16 13 9 8 7 4 2 2 2 4 7 14 25 32 27 27 26 20 19 19 19 19 20 22 23 24 25 27 29 32 36 41 42 39 37 37 38 39 41 43 45 47 46 45 44 45 45 46 47 49 51 51 50 48 46 44 43 43 43 43 43 43 43 43 43 44 45 45 46 46 46 46 46
12 10 10 12 13 13 15 16 16 16 16 16 17 18 17 14 12 11 8 5 4 2 4 4 6 19 38 36 30 29 25 23 22 19 19 20 22 23 24 25 26 30 35 39 40 37 36 36 37 38 40 42 45 46 45 43 43 44 44 45 46 48 49 50 48 46 43 41 41 41 41 41 41 41 41 41 41 42 42 42 43 43 42 42 42 41
14 11 11 14 17 16 17 17 17 19 18 19 21 19 18 16 13 13 13 15 11 4 2 1 3 26 48 41 33 33 28 24 20 16 18 20 22 24 24 25 29 34 37 38 36 35 35 36 37 39 42 44 45 44 43 42 43 44 44 46 48 49 49 47 44 41 40 39 39 39 39 39 39 39 39 39 40 40 40 40 39 39 39 38 37 37
14 14 16 21 23 22 21 21 21 23 22 23 24 22 21 18 14 10 9 16 18 12 9 2 5 36 54 41 35 35 26 21 19 16 20 23 24 25 25 29 34 36 36 35 34 35 35 36 39 42 44 44 43 41 42 42 43 44 45 47 49 48 47 44 41 39 38 38 38 38 38 38 37 37 37 38 38 38 38 37 37 36 36 35 35 34
15 16 21 25 25 23 23 24 24 23 22 24 23 23 22 19 19 14 7 12 15 16 18 8 5 37 54 41 35 32 22 21 23 24 27 27 27 28 30 34 35 34 34 34 34 34 35 39 42 44 44 42 41 41 41 42 43 44 46 48 49 47 43 40 38 37 37 37 38 37 37 36 36 36 36 36 36 36 36 35 35 35 34 34 34 33
15 15 20 25 27 27 25 24 22 19 18 20 20 21 21 20 22 20 19 21 15 16 20 7 5 37 52 40 33 29 24 28 31 32 32 30 30 31 32 34 33 33 35 34 34 36 38 43 44 44 42 41 41 41 42 43 44 45 47 48 48 45 40 38 37 37 37 37 37 37 37 36 36 36 36 35 35 35 34 34 34 33 33 32 32 32
16 16 19 19 19 20 19 16 15 16 17 19 23 23 23 24 22 21 26 26 19 22 25 10 11 41 48 39 39 36 33 37 37 36 36 32 31 32 33 34 34 34 35 34 35 39 42 44 44 42 41 40 41 42 42 44 45 47 48 48 46 43 39 38 37 37 37 37 37 37 36 36 36 36 36 35 34 34 33 33 32 32 32 32 32 32
20 22 22 16 10 9 12 14 18 23 24 27 31 30 29 28 24 23 23 21 19 24 24 19 28 49 49 43 47 44 41 42 40 37 35 31 31 33 33 34 35 34 34 35 38 42 43 44 42 40 40 41 41 42 43 45 46 48 48 47 44 41 39 38 37 37 37 37 37 36 35 35 35 35 35 35 34 34 33 33 33 32 32 32 32 32
23 27 27 25 23 23 26 28 30 32 33 34 36 34 34 32 30 27 23 26 31 27 28 39 49 53 51 47 46 46 43 42 38 33 30 30 32 34 34 34 35 34 35 38 41 43 43 42 40 40 40 40 41 42 44 46 47 48 47 45 42 39 38 37 37 37 37 37 36 36 35 35 35 35 35 35 34 34 33 33 33 32 32 32 31 31
24 29 28 28 32 33 34 34 33 33 36 39 39 38 38 36 35 35 32 39 41 28 31 52 52 45 51 50 42 41 39 35 31 27 27 31 33 34 34 34 34 35 37 40 42 43 42 40 39 39 40 40 41 43 45 46 47 47 45 42 40 38 37 36 36 36 36 36 36 36 35 35 35 35 35 34 34 33 33 32 32 31 31 31 30 30
24 29 30 30 33 34 34 34 34 34 38 41 41 41 40 37 37 39 41 44 43 35 41 55 50 46 52 46 35 32 29 26 27 26 28 31 32 32 33 33 35 37 39 41 42 42 40 39 39 39 40 40 42 43 45 46 47 45 43 40 38 37 36 36 36 36 36 36 36 35 36 35 35 35 35 35 34 33 32 32 31 31 30 30 30 29
22 27 30 31 34 37 35 35 34 34 37 41 42 41 40 39 40 43 46 45 43 48 53 54 51 51 46 36 29 24 21 24 26 27 30 31 30 32 33 34 36 38 40 41 41 40 39 38 39 39 40 41 42 44 46 46 45 43 40 38 37 36 35 35 36 36 36 36 36 36 36 35 35 35 35 34 34 33 32 32 31 31 30 29 29 29
23 27 30 32 36 39 38 35 33 33 35 40 46 46 43 42 40 40 42 40 40 47 47 43 47 49 37 28 27 25 24 27 28 29 31 30 30 32 33 35 37 38 40 41 40 39 39 39 39 39 40 42 43 45 46 45 44 42 39 38 36 35 35 35 36 36 36 36 36 36 36 35 35 35 34 34 33 33 32 32 32 31 30 30 29 29
25 28 32 30 32 38 39 34 32 32 35 44 49 42 31 27 28 30 32 30 32 37 36 35 42 41 32 28 30 30 29 29 29 31 31 30 31 33 33 35 37 39 41 41 39 39 39 39 40 40 41 42 44 45 45 44 43 40 38 37 36 35 35 35 36 36 36 35 35 35 35 35 34 34 34 33 33 33 32 32 32 31 31 30 29 29
27 28 31 26 25 35 36 30 32 34 32 38 37 25 19 23 27 31 33 31 31 33 33 35 38 35 31 31 33 31 29 30 32 31 30 32 33 33 34 36 38 40 41 40 40 39 39 39 40 40 42 43 44 45 45 43 41 39 38 36 35 35 35 35 35 35 35 35 35 35 35 34 34 34 33 33 33 33 33 32 32 32 31 31 30 30
27 27 30 25 22 30 36 34 34 26 17 23 31 29 32 38 36 34 34 30 28 31 34 36 36 32 31 33 34 32 31 32 32 30 32 33 32 32 34 36 39 41 41 40 40 39 39 40 40 40 42 43 44 45 44 42 40 38 37 36 35 35 34 35 35 34 35 35 35 35 34 34 34 34 33 33 33 33 33 33 33 33 32 32 31 31
26 26 29 27 24 31 39 31 18 11 17 33 43 41 37 33 29 31 32 28 25 28 31 32 32 32 33 36 35 32 31 32 32 33 34 33 32 32 35 37 40 42 41 39 39 38 38 39 39 41 42 43 44 43 42 41 39 37 36 35 34 34 34 34 34 34 34 35 34 34 34 34 34 33 33 33 33 33 33 33 33 33 33 32 32 32
25 25 27 27 25 28 26 12 7 22 43 50 42 31 26 24 23 26 32 32 28 28 31 34 35 34 33 32 30 29 31 34 36 36 34 31 32 33 35 38 41 41 40 38 37 37 38 38 39 41 42 43 43 41 40 39 38 36 35 34 34 34 34 34 34 34 34 34 34 34 34 34 33 33 33 34 33 33 33 33 34 34 33 33 32 32
23 24 26 24 21 21 19 19 26 38 46 44 33 26 25 26 26 27 33 39 36 33 34 34 30 27 26 27 30 32 35 37 38 36 31 30 32 34 36 39 41 40 39 37 36 37 38 38 40 41 42 43 42 40 39 38 37 36 35 34 33 33 33 33 34 34 34 34 34 34 34 34 34 34 34 34 34 33 33 33 34 34 34 33 32 32
22 24 25 21 19 20 20 21 21 19 25 33 32 29 31 34 33 32 37 44 41 31 26 24 23 26 29 32 35 36 35 37 40 37 31 30 33 35 37 41 42 40 38 36 36 37 37 39 41 41 42 42 41 39 38 37 36 35 34 33 33 33 33 33 33 33 34 34 34 34 34 34 34 34 34 34 34 34 33 33 34 34 34 34 33 33
23 24 24 23 25 25 20 13 9 13 26 36 34 35 39 39 38 36 35 40 38 27 24 28 31 34 37 37 37 36 35 38 41 37 32 33 36 37 39 42 43 40 37 36 36 37 38 39 41 41 42 41 40 39 37 36 35 34 33 33 32 32 33 33 32 33 33 33 33 33 33 33 33 33 33 33 33 33 33 34 34 34 34 34 34 34
24 23 24 26 30 31 28 23 21 28 39 43 40 39 37 34 34 27 20 28 35 32 35 40 39 38 39 38 38 38 36 38 40 37 35 37 38 39 41 44 43 39 37 36 36 37 38 39 40 41 41 40 39 38 36 35 35 34 33 32 32 32 32 31 32 32 32 32 32 32 33 33 33 33 33 33 33 33 33 34 34 34 34 34 34 34
27 25 24 28 32 33 32 30 32 43 51 46 34 29 28 27 26 21 19 31 40 39 41 42 39 39 40 39 39 40 38 37 38 38 39 40 39 41 43 44 42 38 36 36 36 37 38 39 40 40 40 39 38 36 35 34 33 32 32 31 31 31 31 31 31 31 31 32 32 32 32 32 32 33 33 33 33 33 33 34 34 34 34 34 34 34
28 23 22 26 28 29 31 31 32 41 46 37 25 26 30 27 25 28 36 43 43 40 42 41 39 39 40 39 40 40 38 37 38 39 40 40 40 42 44 43 40 37 36 36 36 37 38 39 39 39 39 37 36 35 34 32 31 31 31 30 30 30 30 30 31 31 31 31 31 31 32 31 32 32 32 33 33 32 32 33 33 33 34 34 34 34
32 24 23 27 25 21 21 20 18 25 36 39 38 39 38 34 34 39 43 42 41 41 42 40 39 39 39 40 39 38 38 38 39 40 41 40 41 43 44 42 39 36 35 35 35 36 38 38 38 38 38 36 35 33 32 31 30 30 29 29 29 29 29 30 30 30 31 31 31 31 31 31 31 31 32 32 33 32 32 32 32 33 33 34 34 34
34 29 27 30 29 21 20 22 27 37 45 47 46 43 40 41 42 42 41 42 42 40 38 37 37 37 37 38 38 37 39 39 39 40 40 40 42 44 43 41 37 35 35 35 35 36 37 37 37 37 36 35 33 32 31 29 28 28 28 28 28 28 28 29 29 30 30 30 30 30 30 30 30 31 31 32 33 33 33 32 32 32 33 34 34 35
39 38 35 37 39 36 38 45 49 50 48 45 44 43 43 42 41 40 41 40 37 34 35 36 36 35 36 37 38 38 39 39 39 40 40 41 44 44 42 39 36 35 34 34 35 36 36 36 36 35 34 34 32 30 29 28 27 27 27 27 27 27 27 28 28 28 28 29 29 29 29 30 30 31 32 32 33 33 33 33 33 33 33 34 35 35
43 41 39 43 46 47 51 53 50 46 45 44 42 41 39 37 36 35 35 33 32 32 34 34 34 35 37 38 39 39 40 40 40 41 41 43 44 43 40 37 34 34 34 33 34 35 35 35 34 33 33 32 31 29 28 28 26 26 26 26 26 26 26 27 27 27 27 28 28 29 30 30 30 31 32 32 33 34 34 34 34 33 33 34 35 36
42 39 40 45 47 47 50 49 45 43 43 39 36 35 34 32 31 30 30 31 32 32 33 34 36 37 37 39 40 40 40 41 41 41 42 43 44 42 38 35 34 33 33 33 34 34 34 33 32 32 31 31 30 29 27 27 26 25 25 25 26 25 26 26 26 26 27 28 28 29 30 31 31 31 32 32 33 33 33 34 34 33 33 34 35 36
42 42 43 44 43 44 45 43 40 39 39 36 34 34 33 31 30 30 31 32 32 32 34 35 36 37 39 40 40 41 41 41 41 42 43 43 42 39 35 34 33 32 32 33 33 33 33 32 31 30 30 29 29 28 27 27 26 25 24 25 25 25 25 26 26 26 27 28 29 30 31 32 32 32 32 32 32 32 32 32 33 33 33 34 35 36
40 39 39 38 39 42 42 39 38 39 42 39 35 33 33 31 31 31 31 31 32 33 35 36 37 39 40 40 41 42 42 41 42 43 43 43 40 37 34 33 32 31 31 32 32 32 32 31 30 29 29 28 28 27 26 26 26 25 25 24 25 26 26 26 27 27 28 29 30 31 32 32 32 33 33 32 32 32 31 32 32 32 33 33 34 35
34 34 35 36 40 42 41 39 37 40 44 43 38 34 32 30 30 31 31 32 33 35 36 38 39 39 40 42 42 42 42 42 43 43 43 41 38 35 33 32 31 31 31 31 32 32 31 30 30 28 28 27 27 26 26 26 26 26 25 24 25 26 26 26 27 28 29 30 31 31 32 32 32 33 33 32 32 32 31 31 32 32 33 34 34 35
30 33 35 36 38 41 41 39 37 39 42 40 35 31 30 30 31 33 33 34 36 37 38 39 39 40 42 43 43 43 43 43 43 43 42 39 36 34 33 32 30 30 31 31 31 31 31 30 29 28 27 27 26 25 25 25 26 26 25 24 25 26 26 27 28 28 29 31 31 32 33 32 32 33 32 32 33 33 33 33 32 32 33 34 35 35
Wind_Direction
276 259 253 247 238 227 222 224 230 239 248 251 250 251 257 265 269 273 274 275 278 280 281 279 279 281 282 281 276 270 266 261 261 261 252 245 248 253 256 261 267 271 278 286 290 296 300 301 302 302 302 303 302 301 300 300 300 300 300 301 301 302 303 303 303 302 302 301 301 300 301 300 298 297 297 296 296 296 296 296 295 295 294 294 293 293
274 254 248 243 227 217 215 218 227 237 246 252 251 254 264 271 275 280 279 281 286 291 292 288 286 287 284 280 274 269 266 261 261 258 248 243 247 254 259 262 265 270 278 286 290 294 296 296 296 296 296 297 296 296 295 294 295 295 296 297 299 300 301 302 302 302 302 301 300 300 300 298 297 296 294 294 294 294 294 293 293 293 293 292 292 291
270 250 237 232 228 225 223 226 235 244 253 261 263 269 277 283 290 291 289 292 297 301 304 301 297 293 282 276 277 275 269 260 260 262 255 251 253 258 265 265 264 271 279 284 287 288 289 290 290 290 291 292 293 293 293 292 293 293 295 297 299 300 301 302 302 302 302 301 300 300 298 296 295 294 293 292 292 292 292 291 291 291 291 290 290 290
269 230 214 223 232 234 236 239 245 252 268 285 293 301 304 308 313 311 307 305 308 311 312 310 303 298 285 272 273 276 272 262 260 265 265 263 262 261 263 264 264 269 275 279 283 286 288 290 291 291 291 291 291 290 290 290 291 292 296 299 301 303 304 304 304 304 303 301 300 299 297 296 295 293 292 292 292 293 292 291 291 291 290 290 289 289
242 173 168 174 165 175 267 297 306 314 321 318 315 318 317 317 317 317 317 313 314 314 312 315 311 301 288 271 273 276 272 265 260 264 270 271 267 259 260 263 260 262 268 275 281 286 289 291 292 292 292 293 293 292 291 292 294 297 300 303 305 306 307 307 306 305 304 303 301 300 298 297 295 294 293 293 294 294 292 292 292 292 291 291 290 289
141 145 144 133 113 65 21 358 342 332 326 320 315 316 316 314 311 310 313 312 313 311 311 325 327 297 286 284 281 280 275 270 263 262 268 269 263 258 259 258 254 259 267 273 280 283 286 287 289 292 295 298 301 300 299 299 299 300 304 306 307 308 309 309 308 306 304 303 302 301 299 298 297 296 296 295 294 292 291 290 291 290 290 290 290 290
125 140 140 120 81 25 3 341 333 319 313 313 311 312 315 313 307 303 305 309 310 307 312 323 320 282 295 301 292 279 278 276 268 265 264 259 255 257 258 253 252 258 265 272 279 282 284 287 292 297 301 304 305 302 301 300 300 302 305 307 308 309 310 309 307 305 303 302 301 300 299 298 298 298 298 296 294 292 291 290 290 289 288 287 287 288
135 156 135 70 355 350 341 325 313 303 303 310 314 320 324 321 313 301 299 302 303 304 309 312 300 282 294 306 314 297 292 288 278 273 261 250 253 261 260 252 251 255 262 270 278 283 287 292 297 301 303 302 300 298 297 298 299 302 304 306 307 309 309 308 306 304 302 301 300 299 298 298 297 297 297 296 294 292 292 292 291 289 288 287 286 285
168 302 25 8 346 332 312 304 300 303 313 317 322 330 336 336 323 303 295 293 299 303 299 296 301 285 282 301 314 308 305 304 286 274 259 257 268 272 266 258 254 254 260 270 279 285 290 292 294 297 297 297 297 297 297 296 298 299 302 305 307 308 308 306 304 302 301 299 298 297 297 297 296 295 295 294 293 292 292 291 290 290 289 288 287 286
230 330 7 344 328 304 289 292 295 311 329 328 328 335 343 343 326 307 290 286 297 294 280 286 298 284 284 301 313 315 314 322 307 292 280 283 287 280 271 263 256 253 259 271 280 286 289 289 292 296 297 298 298 297 295 294 296 299 303 305 307 308 307 305 303 301 299 298 297 297 296 296 296 295 293 293 292 291 289 289 288 288 288 287 287 287
297 344 346 307 305 292 295 301 297 310 325 328 333 339 345 342 322 306 286 290 309 284 275 285 288 274 291 303 314 321 314 316 311 303 291 287 288 281 269 258 253 253 259 270 277 283 288 292 294 296 297 298 297 294 293 294 297 301 305 306 307 308 307 304 301 299 299 298 297 297 297 296 296 295 294 293 292 290 288 287 286 285 285 285 285 285
319 326 294 286 286 282 300 307 309 315 317 324 334 338 339 333 315 299 278 288 227 270 286 288 290 264 247 287 312 314 307 306 300 297 289 282 283 277 264 255 254 257 262 268 274 281 288 293 295 296 297 295 293 292 292 295 298 302 305 306 308 308 306 303 301 300 299 299 299 298 298 297 296 295 294 293 292 291 289 288 287 286 284 283 283 283
282 291 283 275 277 284 295 299 309 312 308 316 324 330 334 342 344 306 262 269 239 257 280 284 297 273 263 285 308 309 302 302 296 296 286 276 276 267 259 258 260 261 264 268 274 281 287 292 296 297 295 293 291 291 293 295 300 304 307 308 308 308 305 303 302 301 302 302 301 301 301 300 299 297 296 295 294 293 292 291 290 289 288 286 285 284
275 275 278 274 276 278 283 294 304 305 307 308 307 312 322 27 40 297 266 289 271 262 272 282 296 282 279 296 313 309 310 307 299 294 276 267 266 258 256 259 263 264 265 270 274 280 288 295 297 296 294 292 292 292 294 298 303 307 308 309 308 306 304 304 304 304 305 305 305 304 304 303 301 300 298 297 296 295 294 293 292 291 291 290 289 287
276 270 277 279 282 281 283 292 297 299 304 300 288 288 294 281 220 257 243 224 262 277 277 277 282 276 283 303 310 309 309 298 290 286 265 259 261 258 258 258 262 264 265 270 274 281 292 298 298 296 295 294 294 295 298 302 306 308 309 308 306 305 304 305 305 306 307 307 307 306 305 304 303 302 301 299 298 297 296 295 294 294 293 292 291 289
284 283 285 287 290 288 285 287 290 298 301 289 276 282 293 282 255 253 253 251 262 301 280 255 257 273 285 300 306 306 297 277 288 287 261 252 264 269 266 262 261 263 264 267 273 284 295 299 299 298 297 296 297 299 302 305 307 308 308 306 305 305 306 306 308 308 309 309 308 307 306 304 303 303 301 301 300 299 299 298 297 297 296 295 294 292
294 297 295 295 294 285 283 284 285 289 287 281 284 289 291 287 273 261 262 269 261 279 268 234 254 281 291 302 307 298 284 290 294 284 266 259 271 275 271 267 264 263 264 266 274 286 294 297 298 299 298 299 300 301 304 306 307 307 306 305 306 307 308 309 310 311 310 309 308 306 305 305 304 303 302 302 302 301 301 300 300 299 298 297 296 295
302 301 299 296 289 282 284 283 281 282 280 280 284 287 288 284 277 264 260 300 226 244 263 221 243 277 284 290 300 297 292 297 293 286 279 271 274 277 274 272 268 266 266 269 279 288 294 297 299 299 298 299 300 302 305 306 306 305 305 306 308 309 310 311 312 311 309 308 307 306 305 304 304 303 303 303 302 302 302 302 302 301 300 299 298 297
306 306 304 297 287 286 287 283 283 284 282 281 280 280 279 268 258 255 247 294 282 267 286 221 228 265 270 272 294 302 295 295 295 292 285 278 279 279 279 279 274 272 273 277 285 292 296 299 299 298 299 300 302 304 305 306 305 306 307 308 309 311 312 312 311 310 309 307 306 306 305 305 304 304 303 303 303 304 304 304 304 303 303 302 301 300
307 300 296 296 291 288 286 284 287 289 287 283 278 274 274 265 256 255 238 230 247 228 290 278 206 264 279 285 297 303 298 296 296 289 280 278 281 281 280 280 277 277 281 286 292 296 299 299 298 299 300 302 304 305 305 305 306 307 308 309 310 312 312 311 310 308 307 306 306 306 306 306 305 304 304 304 305 305 305 306 305 305 305 305 305 304
302 288 282 291 290 286 288 291 291 290 287 282 277 274 273 269 260 261 252 244 249 217 230 322 220 275 289 297 298 299 301 298 294 283 276 282 285 284 281 280 281 283 287 292 296 298 299 299 299 300 302 304 305 306 305 306 307 308 309 310 311 312 312 311 309 308 307 307 307 307 307 306 305 305 306 306 307 307 307 307 307 308 309 309 309 309
297 287 282 286 288 289 293 294 289 288 286 282 279 277 277 273 260 260 260 246 243 232 235 222 265 284 294 302 300 301 303 299 297 290 289 294 293 291 288 285 286 289 292 296 298 299 299 299 301 303 305 306 306 305 305 306 308 309 310 311 312 313 312 311 310 309 308 309 309 309 308 308 307 307 308 308 308 308 309 310 311 312 313 314 315 315
293 288 285 287 292 295 294 291 287 286 284 278 276 275 276 274 261 251 252 256 244 233 246 239 248 285 295 302 302 303 302 299 303 301 300 303 299 295 292 288 290 293 297 299 299 300 300 301 304 306 306 306 305 305 307 308 310 311 312 313 313 313 313 311 310 310 310 311 311 311 310 310 309 309 309 309 308 309 311 312 314 316 318 319 319 319
294 287 286 291 297 297 294 292 290 287 280 272 273 275 273 273 272 264 260 267 262 239 245 223 227 278 291 301 301 300 299 301 306 304 303 305 300 295 291 290 296 299 300 301 301 302 303 304 306 307 306 305 305 307 309 310 311 312 313 314 314 314 314 312 313 313 312 313 313 313 313 311 311 310 310 309 309 310 312 313 316 318 320 321 321 321
291 283 283 292 305 307 303 300 296 291 285 279 280 280 276 277 276 269 263 262 264 259 251 217 245 274 288 301 298 295 297 300 304 304 304 304 298 293 293 296 301 301 301 302 301 303 305 305 307 306 305 306 308 309 310 311 313 314 315 315 315 315 315 315 315 314 314 315 315 314 313 312 311 310 309 310 310 311 313 315 318 320 322 324 325 325
287 281 279 278 278 284 289 293 296 296 291 286 284 283 283 282 274 270 265 252 253 261 246 227 257 276 287 295 293 293 296 298 301 304 304 302 295 294 298 301 302 301 301 302 302 304 306 306 306 305 305 307 309 310 311 312 314 316 316 316 316 317 317 316 316 315 316 316 316 315 313 312 311 310 310 311 312 314 316 318 321 323 325 327 327 328
285 282 283 279 271 274 285 292 294 293 289 286 286 285 282 281 277 270 257 247 254 258 254 260 268 277 287 295 295 296 299 301 303 303 299 296 294 297 300 300 300 300 300 301 303 305 306 305 304 304 306 308 309 310 313 315 316 317 317 317 317 317 317 316 315 316 316 316 315 314 313 312 312 312 313 314 315 316 319 321 323 325 326 327 327 327
283 285 288 287 285 289 294 294 292 290 289 288 287 286 284 282 277 265 255 260 265 256 263 277 278 277 288 300 303 303 306 306 301 295 291 293 296 298 299 299 299 299 300 302 304 305 304 303 303 305 307 309 310 313 315 317 317 318 318 317 317 317 316 316 315 316 316 315 315 314 314 313 314 314 315 316 317 319 320 322 324 324 325 326 325 325
283 287 292 291 293 296 295 294 294 291 291 291 289 289 287 282 276 270 268 272 268 256 267 283 284 281 289 301 309 311 313 303 291 288 291 296 298 298 298 298 298 299 301 303 304 304 303 303 304 306 308 310 313 315 317 318 318 318 318 317 317 317 316 316 315 315 315 315 315 315 315 315 316 316 317 318 319 320 321 322 323 323 324 324 323 323
284 287 294 293 296 300 298 297 298 294 293 294 293 292 290 285 280 278 279 280 271 266 275 283 282 282 292 306 315 315 305 289 285 290 294 297 298 298 298 298 299 301 302 303 304 303 303 303 306 309 311 313 316 317 318 319 318 318 317 317 317 317 316 315 315 315 316 316 316 316 316 316 317 317 318 319 319 320 320 321 321 321 321 321 321 321
285 286 292 294 296 301 303 302 301 299 298 298 296 297 295 291 286 282 283 283 273 272 282 284 278 283 300 316 314 306 296 289 289 292 295 297 299 300 300 300 301 303 304 305 304 303 304 306 308 311 313 315 317 318 319 319 318 318 317 317 317 316 315 315 315 316 316 317 317 317 317 317 318 318 318 319 319 319 319 319 319 319 319 319 319 318
288 286 291 294 293 297 303 304 302 302 300 297 299 305 303 292 289 288 287 286 277 278 286 281 275 287 308 315 307 303 299 293 291 292 295 297 300 302 303 303 304 305 306 306 305 304 306 308 310 313 315 317 318 319 319 319 318 318 318 318 317 316 316 316 316 316 317 317 317 317 317 317 318 318 318 318 318 318 318 318 317 317 317 317 317 316
290 287 289 290 288 294 299 298 300 305 304 300 304 314 314 302 299 295 291 289 286 284 281 277 281 296 307 306 305 305 299 292 290 292 294 298 301 304 305 306 307 309 308 307 305 306 307 310 312 314 316 318 319 319 319 319 318 318 318 318 317 317 316 315 315 316 316 317 317 317 317 318 318 318 318 318 318 318 318 317 316 315 315 316 316 315
291 289 287 284 281 287 292 296 302 304 299 302 310 314 311 307 302 295 292 291 290 286 282 284 291 298 301 304 307 304 295 291 290 291 295 299 303 304 304 307 311 311 309 307 305 306 308 310 313 315 316 318 319 319 319 319 318 318 318 317 317 316 315 315 315 316 316 316 316 317 317 318 318 318 318 318 318 318 318 317 316 315 315 315 315 313
291 288 283 279 275 282 292 302 310 295 287 300 307 308 308 306 300 294 293 295 295 291 290 290 291 296 301 304 303 297 291 290 289 291 296 300 302 302 304 308 312 311 308 306 305 306 309 311 313 315 317 319 319 319 319 318 318 318 317 317 317 316 315 315 315 315 316 316 317 317 318 318 318 318 318 318 318 317 317 316 315 314 314 314 314 313
291 286 280 277 275 282 291 289 268 292 302 305 307 311 315 312 308 302 300 301 302 297 294 293 295 300 302 300 298 294 292 291 291 294 298 301 301 301 303 308 311 310 307 305 305 307 309 312 314 316 318 319 320 320 319 318 318 318 317 317 316 315 315 314 315 316 316 316 317 317 318 318 317 317 317 317 317 317 316 316 314 314 313 314 313 312
291 283 278 275 274 277 275 268 278 294 303 308 313 321 320 314 313 310 303 303 306 304 299 298 300 301 299 298 299 298 297 296 296 299 303 301 298 300 304 308 311 310 306 305 306 309 311 313 315 318 319 320 320 319 318 318 318 318 317 317 315 315 315 315 315 316 316 317 317 317 317 317 317 317 317 317 317 317 316 315 314 314 313 313 313 312
291 282 276 270 269 271 269 277 290 295 298 303 310 316 316 313 314 311 303 302 309 314 308 304 305 303 303 305 304 304 304 301 300 305 307 299 297 302 306 310 312 310 307 307 308 311 312 314 317 319 320 320 320 319 319 319 318 318 317 316 316 315 315 315 315 316 316 316 316 317 317 317 317 317 317 317 317 317 317 316 315 314 314 314 313 312
290 282 273 260 259 262 257 259 266 265 283 298 307 313 312 310 309 309 302 302 313 323 317 311 311 309 309 310 309 308 306 302 303 308 307 301 302 306 308 312 313 310 308 308 310 312 314 315 318 319 319 319 319 319 319 319 318 318 317 316 316 315 315 315 315 315 315 316 316 317 317 317 317 317 317 317 317 317 317 316 315 315 314 314 314 313
291 283 270 259 260 262 254 253 259 268 284 299 308 310 310 307 306 305 298 305 316 320 314 312 313 311 311 311 308 307 306 304 306 308 307 306 307 307 310 313 313 310 308 309 311 313 314 316 318 318 318 319 319 320 320 319 318 317 316 316 315 314 314 314 314 314 315 315 315 316 316 316 317 317 317 317 318 318 317 317 316 316 315 315 314 314
291 283 271 267 269 265 252 249 261 278 294 306 311 310 309 303 296 289 291 307 314 312 310 310 310 309 309 307 306 308 308 306 306 306 307 307 307 308 312 314 311 309 309 309 311 313 315 316 317 318 318 319 319 320 319 318 317 316 315 314 314 314 314 314 314 315 315 315 315 315 316 316 317 317 318 318 318 319 318 317 317 317 316 316 315 315
291 283 274 271 271 266 256 251 261 282 301 315 319 313 309 298 288 293 303 309 309 307 307 307 307 308 307 306 307 308 307 306 306 306 307 306 307 310 313 312 310 308 308 309 311 313 314 315 317 317 318 319 319 319 319 317 316 315 314 314 315 315 314 314 315 315 314 315 315 315 316 317 318 318 318 318 319 320 319 319 319 319 318 318 317 317
290 282 275 278 280 271 254 244 256 288 307 314 313 309 306 299 297 304 306 304 303 304 305 304 305 307 306 306 307 306 305 305 305 305 305 306 308 311 313 312 309 307 307 309 311 312 314 316 316 317 318 319 319 319 317 316 316 314 313 314 315 315 314 314 314 314 314 314 314 315 317 318 318 319 318 318 319 319 319 319 319 319 319 318 318 318
291 285 282 287 287 272 253 260 284 298 302 305 307 307 304 303 304 305 302 300 302 303 302 303 305 306 305 305 305 304 303 304 303 304 306 306 309 312 312 310 307 305 307 309 310 312 314 315 316 317 317 318 318 318 317 316 315 314 314 315 315 315 314 314 314 314 314 314 315 316 317 318 318 318 318 318 318 319 318 318 318 318 318 318 318 318
295 296 296 295 290 286 285 290 297 301 303 306 308 307 305 304 304 302 300 299 300 301 302 305 306 306 306 304 304 303 303 303 304 305 306 307 310 312 310 307 304 305 306 308 310 312 314 314 316 316 316 317 318 317 317 316 316 315 314 314 315 314 313 313 313 313 313 314 315 315 316 317 317 316 317 317 317 318 317 317 317 318 318 317 317 317
300 301 300 298 297 298 297 298 302 305 307 308 307 306 306 306 304 301 298 298 302 305 306 307 307 307 306 304 304 304 304 304 304 305 306 309 311 311 308 304 303 304 306 307 310 312 313 314 315 315 315 316 317 317 317 316 316 315 314 314 314 313 313 313 313 313 313 314 314 315 315 316 316 316 316 316 316 316 316 316 317 318 318 317 317 316
303 302 300 302 304 301 297 301 309 311 309 308 306 305 307 307 305 302 301 303 307 309 308 308 308 307 306 305 305 304 303 304 304 305 307 310 310 309 305 302 302 304 305 307 309 311 312 313 314 314 315 316 317 318 317 316 316 316 314 314 314 313 313 313 313 313 313 313 314 314 315 315 315 315 315 315 315 315 315 316 316 317 318 317 316 316
306 306 308 310 310 303 299 307 314 309 305 306 308 309 310 309 306 306 307 308 310 309 308 308 307 307 307 306 305 304 304 304 305 306 309 310 309 306 302 301 302 303 304 307 309 311 312 313 313 314 315 315 317 317 316 315 316 316 315 315 314 313 314 314 314 314 313 313 314 314 314 315 315 314 314 314 314 314 314 315 316 316 317 316 316 316
313 315 318 319 314 308 307 314 318 310 304 305 310 314 314 310 308 308 309 310 309 308 308 307 306 306 307 307 306 305 305 305 306 308 310 310 307 303 300 300 302 302 305 308 310 311 312 312 313 314 314 314 316 316 315 315 315 315 317 316 313 313 314 314 314 314 313 313 314 314 314 314 314 314 314 313 313 313 314 314 315 316 316 315 314 314
327 326 327 326 318 312 311 315 319 313 306 307 313 317 314 312 311 309 309 310 309 307 306 305 305 307 308 307 307 306 306 307 308 309 310 309 305 301 300 300 301 303 306 308 310 311 311 311 312 313 313 313 314 314 313 314 314 315 317 316 313 313 314 313 314 314 313 314 314 313 313 313 313 312 312 312 312 312 313 313 314 314 315 314 313 313
331 327 327 324 316 310 309 312 313 309 306 309 315 316 314 314 312 310 310 310 308 306 306 306 307 309 309 309 308 307 307 308 309 310 310 306 302 299 300 300 301 303 306 308 309 310 310 310 311 312 312 312 312 312 312 312 312 314 316 315 313 312 313 313 314 313 313 313 312 312 312 312 312 311 311 310 310 311 312 313 314 313 313 313 313 312